Regional Weather Roundup
Issued by NWS Huntsville, AL

Home | Current Version | Previous Version | Text Only | Print | Product List | Glossary On
Versions: 1 2 3 4 5 6 7 8 9 10 11 12 13 14 15 16 17 18 19 20 21 22 23 24 25 26 27 28 29 30 31 32 33 34 35 36 37 38 39 40 41 42 43 44 45 46 47 48 49 50
000
ASUS44 KHUN 281410
RWRHUN

WEATHER ROUNDUP FOR THE TENNESSEE VALLEY
NATIONAL WEATHER SERVICE HUNTSVILLE AL
900 AM CDT SAT MAR 28 2015

ALZ001>004-281500-
NORTHWEST ALABAMA

CITY           SKY/WX    TMP DP  RH WIND       PRES   REMARKS
COURTLAND HCN    N/A     36 N/A N/A N5          N/A  WCI  32
BANKHEAD NF      N/A     39  22  51 SE2         N/A
RUSSELLVILLE     N/A     36 N/A N/A MISG        N/A
SHOALS AIRPORT SUNNY     38  18  44 VRB5      30.26R WCI  34
$$

ALZ005>007-016-281500-
NORTH CENTRAL ALABAMA

CITY           SKY/WX    TMP DP  RH WIND       PRES   REMARKS
CULLMAN AG STN   N/A     34 N/A N/A NE6         N/A  WCI  29
DECATUR AP     SUNNY     37  20  50 N8        30.24R WCI  31
HUNTSVILLE AP  SUNNY     38  23  55 N7        30.23R WCI  33
HUN NWS/UAH      N/A     36  19  49 N7          N/A  WCI  31
MERIDIANVILLE  SUNNY     34  18  51 N6        30.22R WCI  29
REDSTONE ARSN  SUNNY     36  22  57 VRB7      30.22R WCI  30
VINEMONT AP    FAIR      34  19  53 N7        30.23R WCI  28
$$

ALZ008>010-281500-
NORTHEAST ALABAMA

CITY           SKY/WX    TMP DP  RH WIND       PRES   REMARKS
ALBERTVILLE    SUNNY     36  27  69 N12       30.19R WCI  27
FORT PAYNE     SUNNY     34  18  51 N7        30.18R WCI  28
SCOTTSBORO AP  SUNNY     37  16  41 N10       30.22R WCI  30
SCOTTSBORO HCN   N/A     36 N/A N/A MISG        N/A
VALLEY HEAD      N/A     32 N/A N/A MISG        N/A
$$

TNZ076-096-097-281500-
SOUTHEASTERN MIDDLE TENNESSEE

CITY           SKY/WX    TMP DP  RH WIND       PRES   REMARKS
TULLAHOMA      SUNNY     30  18  59 N8        30.21R WCI  23
WINCHESTER     SUNNY     30  18  59 N8        30.21R WCI  23
$$

...SURROUNDING SITES...

CITY           SKY/WX    TMP DP  RH WIND       PRES   REMARKS
ATLANTA        MOSUNNY   39  22  50 NW16G22   30.13R WCI  30
ANNISTON       SUNNY     38  21  50 N6        30.21R WCI  33
BIRMINGHAM     MOSUNNY   38  24  57 N10       30.24R WCI  31
CHATTANOOGA    MOSUNNY   37  17  44 N9        30.20R WCI  30
CORINTH        FAIR      39  21  48 N5        30.27R
DALTON         SUNNY     36  23  60 NW10G18   30.18R WCI  28
GADSDEN        SUNNY     37  21  52 N9        30.21R WCI  31
GOLDEN TRNGL   MOSUNNY   39  28  65 N5        30.27R
HALEYVILLE       N/A     35  22  59 NE6       30.26R WCI  30
JACKSON TN     SUNNY     38  23  55 N5        30.29R WCI  34
LEWISBURG      FAIR      31  19  61 N6        30.24R WCI  25
MEMPHIS        CLOUDY    40  19  43 E6        30.29R
MURFREESBORO   FAIR      32  21  64 N9        30.24R WCI  24
NASHVILLE      MOSUNNY   34  13  41 N13       30.26R WCI  25
OXFORD MS      PTSUNNY   36  23  60 E5        30.30R WCI  32
ROME           SUNNY     37  18  46 N9        30.18R WCI  30
SAVANNAH       SUNNY     36  25  64 NE3       30.26R
TUPELO         SUNNY     39  26  59 E6        30.27R WCI  35
TUSCALOOSA     SUNNY     42  24  49 N9        30.27R
$$

...GULF COAST WEATHER...

CITY           SKY/WX    TMP DP  RH WIND       PRES   REMARKS
GULFPORT       SUNNY     51  37  58 E8        30.25R
PASCAGOULA     SUNNY     49  40  71 VRB6      30.26R
MOBILE         MOSUNNY   48  37  65 N7        30.26R
GULF SHORES    SUNNY     48  38  67 NE8       30.25S
PENSACOLA      MOSUNNY   51  38  60 NE7       30.25R
DESTIN         SUNNY     50  38  63 N8        30.25R
PANAMA CITY    SUNNY     51  37  59 N8        30.23R
APPALACHICOLA  SUNNY     54  37  52 N10       30.22R
$$



USA.gov is the U.S. government's official web portal to all federal, state and local government web resources and services.